Jackson, MI

6:02 AM EDT on August 18, 2019 (GMT -0400)
Jackson County-Reynolds

Weather History for KJXN - July, 2019

Change the Weather History Date:

Tuesday, July 16, 2019

  Actual Average Record
Temperature  
Mean Temperature 75 °F 71 °F  
Max Temperature 83 °F 82 °F 97 °F (2012)
Min Temperature 66 °F 60 °F 49 °F (1954)
Degree Days  
Heating Degree Days 0 0  
Month to date heating degree days 0 1  
Since 1 June heating degree days 58 56  
Since 1 July heating degree days 0 1  
Cooling Degree Days 10 7  
Month to date cooling degree days 157 110  
Year to date cooling degree days 260 273  
Since 1 June cooling degree days 250 236  
Growing Degree Days 24 (Base 50)    
Moisture  
Dew Point 71 °F    
Average Humidity 81    
Maximum Humidity 93    
Minimum Humidity 69    
Precipitation  
Precipitation 0.23 in 0.12 in 1.20 in (1980)
Month to date precipitation 1.59 1.77  
Year to date precipitation 18.31 15.64  
Sea Level Pressure  
Sea Level Pressure 29.95 in    
Wind  
Wind Speed 6 mph (SSW)    
Max Wind Speed 14 mph    
Max Gust Speed 20 mph    
Visibility 9 miles    
Events Rain , Thunderstorm    
T = Trace of Precipitation, MM = Missing Value Source: NWS Daily Summary

Daily Weather History Graph

Daily Weather History Graph

Search for Another Location

Airport or City:

Astronomy

Jul. 16, 2019 Rise Set
Actual Time 6:15 AM EDT 9:11 PM EDT
Civil Twilight 5:41 AM EDT 9:45 PM EDT
Nautical Twilight 4:59 AM EDT 10:27 PM EDT
Astronomical Twilight 4:09 AM EDT 11:17 PM EDT
Moon 9:17 PM EDT (7/16) 5:52 AM EDT (7/16)
Length of Visible Light 16h 03m
Length of Day
14h 56m
Full, 100% of the Moon is Illuminated
Jul 16
Full
Jul 16
Full
Jul 24
Last Quarter
Jul 31
New
Aug 7
First Quarter

Hourly Weather History & Observations

Time (EDT) Temp. Heat Index Dew Point Humidity Pressure Visibility Wind Dir Wind Speed Gust Speed Precip Events Conditions
12:56 AM 72.0 °F - 66.9 °F 84% 30.02 in 10.0 mi SW 4.6 mph - N/A   Clear
1:56 AM 73.0 °F - 66.9 °F 81% 30.01 in 10.0 mi Calm Calm - N/A   Clear
2:56 AM 70.0 °F - 66.0 °F 87% 29.99 in 10.0 mi South 4.6 mph - N/A   Clear
3:56 AM 69.1 °F - 66.0 °F 90% 29.99 in 10.0 mi SSW 3.5 mph - N/A   Clear
4:56 AM 66.0 °F - 64.9 °F 96% 29.99 in 10.0 mi SW 3.5 mph - N/A   Partly Cloudy
5:56 AM 70.0 °F - 66.0 °F 87% 29.99 in 10.0 mi WSW 3.5 mph - N/A   Overcast
6:56 AM 73.0 °F - 66.0 °F 79% 29.98 in 10.0 mi SSW 4.6 mph - N/A   Overcast
7:56 AM 73.9 °F - 66.0 °F 76% 29.97 in 10.0 mi South 10.4 mph - N/A   Clear
8:56 AM 73.9 °F - 68.0 °F 82% 29.98 in 10.0 mi South 8.1 mph - 0.00 in Rain Light Rain
9:56 AM 77.0 °F - 71.1 °F 82% 29.97 in 10.0 mi South 8.1 mph - 0.00 in   Overcast
10:56 AM 77.0 °F - 71.1 °F 82% 29.99 in 10.0 mi SSW 11.5 mph - 0.00 in Rain Light Rain
11:56 AM 77.0 °F - 73.0 °F 88% 30.00 in 9.0 mi SSW 10.4 mph 17.3 mph 0.02 in Rain Light Rain
12:56 PM 77.0 °F - 73.0 °F 88% 29.98 in 10.0 mi South 5.8 mph - 0.00 in   Mostly Cloudy
1:17 PM 77.0 °F - 73.0 °F 88% 29.99 in 10.0 mi South 4.6 mph - N/A   Mostly Cloudy
1:29 PM 78.1 °F - 73.0 °F 84% 29.99 in 10.0 mi Variable 4.6 mph - N/A   Mostly Cloudy
1:40 PM 79.0 °F - 73.0 °F 82% 29.99 in 10.0 mi South 8.1 mph - N/A   Scattered Clouds
1:53 PM 78.8 °F - 73.4 °F 83% 29.99 in 10.0 mi South 6.9 mph - N/A   Mostly Cloudy
1:56 PM 78.1 °F - 73.0 °F 84% 29.97 in 10.0 mi SSW 8.1 mph - N/A   Mostly Cloudy
2:25 PM 80.1 °F 84.2 °F 73.0 °F 79% 29.98 in 10.0 mi Variable 5.8 mph - N/A   Mostly Cloudy
2:56 PM 81.0 °F 85.8 °F 73.0 °F 77% 29.94 in 10.0 mi SSW 4.6 mph - N/A   Mostly Cloudy
3:56 PM 82.0 °F 86.7 °F 72.0 °F 71% 29.92 in 10.0 mi South 5.8 mph - N/A   Partly Cloudy
4:09 PM 80.1 °F 84.2 °F 73.0 °F 79% 29.94 in 1.8 mi SSW 11.5 mph 16.1 mph 0.04 in Rain Light Rain
4:22 PM 78.1 °F - 75.0 °F 90% 29.93 in 4.0 mi WSW 6.9 mph - 0.07 in Rain Light Rain
4:38 PM 78.1 °F - 73.9 °F 87% 29.93 in 10.0 mi SSW 6.9 mph - 0.07 in Thunderstorm Mostly Cloudy
4:53 PM 78.8 °F - 75.2 °F 89% 29.93 in 9.0 mi WSW 5.8 mph - 0.07 in Rain Light Rain
4:56 PM 78.1 °F - 75.0 °F 90% 29.91 in 10.0 mi SW 6.9 mph - 0.07 in   Mostly Cloudy
5:56 PM 82.0 °F 87.9 °F 73.9 °F 76% 29.88 in 10.0 mi WSW 4.6 mph - N/A   Scattered Clouds
6:56 PM 75.9 °F - 73.0 °F 91% 29.90 in 10.0 mi NW 6.9 mph - 0.00 in Rain Light Rain
7:56 PM 78.1 °F - 73.0 °F 84% 29.88 in 10.0 mi Calm Calm - 0.00 in   Scattered Clouds
8:56 PM 78.1 °F - 72.0 °F 81% 29.90 in 10.0 mi SSE 6.9 mph - N/A   Overcast
9:21 PM 78.1 °F - 72.0 °F 81% 29.93 in 10.0 mi SSE 4.6 mph - N/A Thunderstorm Overcast
9:37 PM 75.9 °F - 72.0 °F 87% 29.93 in 10.0 mi South 8.1 mph - N/A   Mostly Cloudy
9:46 PM 75.0 °F - 72.0 °F 90% 29.93 in 10.0 mi SW 12.7 mph - 0.00 in Rain , Thunderstorm Light Thunderstorms and Rain
9:56 PM 73.0 °F - 72.0 °F 96% 29.91 in 6.0 mi SW 9.2 mph 19.6 mph 0.02 in Rain Rain
10:03 PM 73.0 °F - 71.1 °F 93% 29.93 in 3.0 mi South 6.9 mph - 0.04 in Rain , Thunderstorm Rain
10:10 PM 73.0 °F - 72.0 °F 96% 29.93 in 2.5 mi South 4.6 mph - 0.06 in Rain , Thunderstorm Rain
10:19 PM 73.0 °F - 72.0 °F 96% 29.93 in 5.0 mi SSE 4.6 mph - 0.08 in Rain , Thunderstorm Light Rain
10:31 PM 73.0 °F - 72.0 °F 96% 29.93 in 5.0 mi South 8.1 mph - 0.10 in Rain Light Rain
10:56 PM 73.0 °F - 72.0 °F 96% 29.91 in 8.0 mi South 6.9 mph - 0.11 in Rain Light Rain
11:56 PM 73.0 °F - 71.1 °F 93% 29.90 in 10.0 mi South 3.5 mph - 0.01 in   Partly Cloudy